sat.trackr.live / text

‹ back to catalog

BEIDOU-3 M22 (C44)

NORAD 44793 · 2019-078A

PAYLOAD ACTIVE UNKNOWN

§ Identity

Operator
Country
PRC
Launch date
2019-11-23
Launch site
XICLF
Launch vehicle
Mass (kg)
RCS (m²)

Purposes: earth_obs, nav

External: N2YO · Heavens-Above · Gunter

§ Orbital elements

Epoch: 2026-09-20T02:59:18.844224Z

Period
773.25 min
Inclination
53.8468°
Eccentricity
0.0004896
Mean motion
1.86227529 rev/d
Perigee alt
21,514.7 km
Apogee alt
21,542.1 km
Semi-major
27,906.5 km
B*
0.0000e+0
RAAN
296.4789°
Arg perigee
40.1336°
Mean anomaly
319.9624°
Rev number
4,641

§ Raw data

BEIDOU-3 M22 (C44)1 44793U 19078A   26263.12452366 -.00000021  00000+0  00000+0 0  99922 44793  53.8468 296.4789 0004896  40.1336 319.9624  1.86227529 46413

JSON: /api/v1/satellites/44793 · /tle

For live sub-satellite position, see the globe view (requires WebGL).

§ Visibility from observer

Set your observer location to see the next 7 days of passes ≥ 10°. The values pass through the URL so the page stays shareable.

No JS? Fill the form by hand. The geolocation button needs JavaScript.